Location: *
(44.3683°N, 6.6958°E)
Time: 22:10:15
(UTC+00:00)

STARLINK-81 - Pass Details

Date: 14 October 2019
Orbit: 549 x 551 km, 53.0° (Epoch: 20 November)

Event Time Altitude Azimuth Distance (km) Brightness Sun altitude
Rises 18:16:15 0° 251° (WSW) 2,709 8.4 -15.9°
Reaches altitude 10° 18:18:32 10° 257° (WSW) 1,818 7.4 -16.3°
Maximum altitude 18:22:34 51° 333° (NNW) 698 4.3 -17.1°
Enters shadow 18:24:59 22° 41° (NE) 1,228 5.1 -17.5°
